PBO Station Position Time Series. Reference Frame : NAM14
Format Version,1.1.1
4-character ID,SHRK
Station name,Shell_Rock
Begin Date, 2020-12-27
End Date, 2023-06-26
Release Date, 2023-06-27
Reference position, 45.4643152882 North Latitude, -121.5287657019 East Longitude, 1319.50190 meters elevation,
Date, North (mm), East (mm), Vertical (mm), North Std. Deviation (mm), East Std. Deviation (mm),              Vertical Std. Deviation (mm), Quality,
2020-12-27,0.00, 0.00, 0.00, 2.55, 1.93, 8.67, suppf,
2020-12-28,-0.41, -1.04, -2.08, 2.54, 1.91, 8.51, suppf,
2020-12-29,-0.12, -0.51, -2.55, 2.53, 1.91, 8.52, suppf,
2020-12-30,1.26, -1.24, 3.96, 2.48, 1.90, 8.43, suppf,
2020-12-31,-1.63, 3.35, 10.18, 2.48, 1.89, 8.38, suppf,
2021-01-01,-0.82, -0.23, -1.45, 2.54, 1.93, 8.68, suppf,
2021-01-02,-0.41, 7.21, 20.09, 2.55, 1.92, 8.61, suppf,
2021-01-03,0.97, 2.63, 18.67, 2.51, 1.89, 8.41, suppf,
2021-01-04,1.10, 3.57, 9.21, 2.50, 1.90, 8.44, suppf,
2021-01-05,-0.25, 0.52, 4.08, 2.50, 1.92, 8.57, suppf,
2021-01-06,5.20, 5.17, 1.63, 2.51, 1.90, 8.44, suppf,
2021-01-07,-0.73, 0.63, -5.36, 2.50, 1.89, 8.38, suppf,
2021-01-08,2.20, 0.72, -7.20, 2.55, 1.92, 8.64, suppf,
2021-01-09,-0.24, -1.05, -7.75, 2.52, 1.92, 8.56, suppf,
2021-01-10,0.37, 0.02, -2.99, 2.50, 1.88, 8.32, suppf,
2021-01-11,0.52, 1.90, -6.50, 2.54, 1.92, 8.60, suppf,
2021-01-12,4.85, 2.29, 9.31, 2.58, 1.94, 8.71, suppf,
2021-01-13,-1.84, 2.63, 5.08, 2.58, 1.96, 8.81, suppf,
2021-01-14,-0.01, 2.00, -8.48, 2.55, 1.92, 8.61, suppf,
2021-01-15,0.96, 2.07, -3.06, 2.55, 1.92, 8.65, suppf,
2021-01-16,1.06, 2.12, -7.64, 2.50, 1.90, 8.48, suppf,
2021-01-17,0.24, 3.10, -3.62, 2.49, 1.88, 8.37, suppf,
2021-01-18,1.13, 2.19, -6.37, 2.54, 1.92, 8.58, suppf,
2021-01-19,0.57, 0.75, -6.04, 2.52, 1.89, 8.39, suppf,
2021-01-20,0.41, 2.17, -1.40, 2.65, 1.98, 8.94, suppf,
2021-01-21,-0.21, 1.73, 3.07, 2.58, 1.96, 8.80, suppf,
2021-01-22,2.57, 0.17, 2.07, 2.53, 1.91, 8.52, suppf,
2021-01-23,0.95, 1.06, 0.78, 2.55, 1.92, 8.58, suppf,
2021-01-24,0.19, 0.89, -0.01, 2.51, 1.89, 8.44, suppf,
2021-01-25,-0.21, 1.23, 1.17, 2.51, 1.89, 8.38, suppf,
2021-01-26,-0.16, -0.88, 0.64, 2.52, 1.90, 8.40, suppf,
2021-01-27,-0.62, 1.16, 2.06, 2.55, 1.91, 8.47, suppf,
2021-01-28,-0.89, 1.06, -4.04, 2.55, 1.92, 8.58, suppf,
2021-01-29,0.41, 1.18, -2.14, 2.55, 1.93, 8.61, suppf,
2021-01-30,0.97, 1.01, 0.19, 2.53, 1.90, 8.45, suppf,
2021-01-31,-4.85, 2.36, -5.28, 2.53, 1.91, 8.52, suppf,
2021-02-01,-6.25, 2.46, -6.37, 2.52, 1.92, 8.52, suppf,
2021-02-02,-2.39, 3.05, -6.55, 2.59, 1.94, 8.72, suppf,
2021-02-03,1.15, 1.39, -3.63, 2.54, 1.92, 8.58, suppf,
2021-02-04,0.61, 0.80, -7.66, 2.53, 1.93, 8.59, suppf,
2021-02-05,0.21, 4.26, 13.11, 2.57, 1.96, 8.83, suppf,
2021-02-06,0.91, 2.63, 5.41, 2.57, 1.94, 8.75, suppf,
2021-02-07,0.21, 2.38, 8.37, 2.59, 1.95, 8.73, suppf,
2021-02-08,0.46, 0.94, -3.27, 2.53, 1.91, 8.52, suppf,
2021-02-09,-0.15, 0.03, -9.27, 2.49, 1.88, 8.37, suppf,
2021-02-10,1.39, -0.62, -6.37, 2.53, 1.89, 8.43, suppf,
2021-02-11,1.46, -1.80, -7.90, 2.52, 1.88, 8.34, suppf,
2021-02-12,2.32, -2.22, -6.66, 2.51, 1.88, 8.35, suppf,
2021-02-13,2.71, -2.99, -2.21, 2.53, 1.90, 8.39, suppf,
2021-02-14,1.82, -1.72, -7.48, 2.51, 1.89, 8.39, suppf,
2021-02-15,1.80, -0.44, -0.01, 2.50, 1.90, 8.45, suppf,
2021-02-16,1.42, 2.08, 13.56, 2.59, 1.96, 8.81, suppf,
2021-02-17,-0.91, 1.55, 7.71, 2.57, 1.95, 8.68, suppf,
2021-02-18,0.98, -1.03, -10.58, 2.61, 1.96, 8.71, suppf,
2021-02-19,0.32, 0.90, -8.88, 2.68, 2.00, 8.97, suppf,
2021-02-20,0.84, -0.72, -8.82, 2.55, 1.94, 8.68, suppf,
2021-02-21,-2.61, 1.88, 6.32, 2.52, 1.93, 8.56, suppf,
2021-02-22,-0.58, 0.92, 6.27, 2.59, 1.94, 8.69, suppf,
2021-02-23,-1.37, 1.35, 8.18, 2.56, 1.93, 8.64, suppf,
2021-02-24,-0.96, 1.76, -4.08, 2.53, 1.92, 8.53, suppf,
2021-02-25,-1.23, 0.43, -0.04, 2.55, 1.96, 8.73, suppf,
2021-02-26,-0.75, -0.02, 3.44, 2.58, 1.98, 8.89, suppf,
2021-02-27,-1.59, 0.12, 9.77, 2.60, 2.03, 9.04, suppf,
2021-02-28,-0.33, -0.78, 3.91, 2.58, 1.99, 8.85, suppf,
2021-03-01,0.36, 2.04, -4.92, 2.57, 1.97, 8.73, suppf,
2021-03-02,0.77, 1.09, -3.53, 2.63, 2.00, 8.87, suppf,
2021-03-03,1.84, 1.12, -5.24, 2.50, 1.90, 8.36, suppf,
2021-03-04,0.65, 1.36, -2.05, 2.50, 1.91, 8.44, suppf,
2021-03-05,-4.56, 2.33, -7.88, 2.62, 1.98, 8.84, suppf,
2021-03-06,0.05, 0.66, -1.07, 2.57, 1.95, 8.63, suppf,
2021-03-07,1.62, 0.26, -6.21, 2.10, 1.58, 7.59, suppf,
2021-03-08,0.64, -1.25, -10.53, 2.14, 1.57, 7.56, suppf,
2021-03-09,2.43, -1.52, -5.76, 2.02, 1.52, 7.31, suppf,
2021-03-10,2.36, -1.58, -11.94, 2.03, 1.53, 7.36, suppf,
2021-03-11,-0.31, -1.26, -1.90, 2.03, 1.54, 7.39, suppf,
2021-03-12,1.25, -0.35, -9.92, 2.05, 1.54, 7.41, suppf,
2021-03-13,0.96, -0.69, -7.83, 2.03, 1.53, 7.37, suppf,
2021-03-14,1.68, -0.90, -9.02, 2.03, 1.52, 7.32, suppf,
2021-03-15,1.60, -1.46, -3.30, 2.02, 1.51, 7.25, suppf,
2021-03-16,0.86, -2.02, 0.87, 2.02, 1.51, 7.25, suppf,
2021-03-17,1.22, -0.64, -9.25, 2.03, 1.53, 7.36, suppf,
2021-03-18,1.09, -0.62, -5.83, 2.07, 1.59, 7.56, suppf,
2021-03-19,3.96, -0.23, -2.95, 2.06, 1.58, 7.47, suppf,
2021-03-20,3.37, -0.16, -3.33, 2.03, 1.53, 7.34, suppf,
2021-03-21,1.93, -0.46, -8.08, 2.01, 1.52, 7.25, suppf,
2021-03-22,-0.34, 2.12, 3.76, 2.03, 1.53, 7.31, suppf,
2021-03-23,1.52, -0.57, -7.90, 2.02, 1.52, 7.28, suppf,
2021-03-24,-0.44, 0.43, -2.07, 2.03, 1.53, 7.33, suppf,
2021-03-25,1.71, -2.10, -0.95, 2.05, 1.56, 7.48, suppf,
2021-03-26,1.85, -1.73, 3.43, 2.03, 1.54, 7.35, suppf,
2021-03-27,1.23, -0.12, -6.49, 2.02, 1.53, 7.31, suppf,
2021-03-28,2.94, -2.06, 0.72, 2.04, 1.56, 7.44, suppf,
2021-03-29,-0.77, -0.82, 2.08, 2.02, 1.52, 7.25, suppf,
2021-03-30,0.45, -0.99, -9.07, 2.02, 1.52, 7.26, suppf,
2021-03-31,1.16, -1.41, -10.47, 2.02, 1.54, 7.32, suppf,
2021-04-01,2.46, -0.27, -1.45, 2.07, 1.57, 7.47, suppf,
2021-04-02,1.88, -0.32, 2.65, 2.02, 1.54, 7.35, suppf,
2021-04-03,0.22, -0.72, 0.66, 2.02, 1.54, 7.36, suppf,
2021-04-04,0.86, 0.74, -2.16, 2.02, 1.54, 7.34, suppf,
2021-04-05,-0.29, 0.12, 0.78, 2.01, 1.53, 7.29, suppf,
2021-04-06,-0.77, 0.47, 1.82, 2.01, 1.54, 7.32, suppf,
2021-04-07,-1.47, 0.96, -2.22, 2.02, 1.56, 7.42, suppf,
2021-04-08,-2.36, 1.74, 8.27, 2.05, 1.58, 7.49, suppf,
2021-04-09,-2.70, 1.39, -0.11, 2.07, 1.58, 7.53, suppf,
2021-04-10,-3.98, 5.25, 6.32, 2.04, 1.55, 7.41, suppf,
2021-04-11,-4.61, 2.63, -1.19, 2.01, 1.54, 7.34, suppf,
2021-04-12,-4.95, 2.95, -7.38, 2.02, 1.58, 7.37, suppf,
2021-04-13,-5.18, 2.13, -4.48, 2.04, 1.60, 7.49, suppf,
2021-04-14,-4.40, 2.45, 0.46, 2.03, 1.59, 7.47, suppf,
2021-04-15,-5.17, 3.14, 2.87, 2.05, 1.58, 7.44, suppf,
2021-04-16,-3.95, 3.19, -0.65, 2.04, 1.59, 7.45, suppf,
2021-04-17,-5.57, 4.01, -1.56, 2.03, 1.59, 7.47, suppf,
2021-04-18,-5.24, 4.96, 1.14, 2.04, 1.59, 7.48, suppf,
2021-04-19,-4.14, 3.98, -3.47, 2.08, 1.65, 7.71, suppf,
2021-04-20,-3.15, 3.14, 0.17, 2.04, 1.59, 7.49, suppf,
2021-04-21,-2.10, 1.76, 1.43, 2.04, 1.58, 7.45, suppf,
2021-04-22,-0.56, 1.04, 5.96, 2.07, 1.65, 7.67, suppf,
2021-04-23,-1.62, 0.93, 9.67, 2.07, 1.66, 7.70, suppf,
2021-04-24,-2.96, 0.72, 7.54, 2.03, 1.54, 7.42, suppf,
2021-04-25,-0.63, 1.58, 8.61, 2.04, 1.56, 7.52, suppf,
2021-04-26,-1.15, 0.08, 10.99, 2.03, 1.54, 7.38, suppf,
2021-04-27,-0.10, 1.17, 1.43, 2.04, 1.59, 7.56, suppf,
2021-04-28,-1.30, 0.81, 4.05, 2.06, 1.60, 7.62, suppf,
2021-04-29,0.11, 1.87, 1.89, 2.03, 1.57, 7.49, suppf,
2021-04-30,0.29, 2.73, 0.42, 2.08, 1.59, 7.66, suppf,
2021-05-01,0.35, -1.03, -0.01, 2.06, 1.60, 7.66, suppf,
2021-05-02,0.10, 2.49, -3.23, 2.02, 1.55, 7.40, suppf,
2021-05-03,-1.34, 1.03, -3.91, 2.01, 1.54, 7.33, suppf,
2021-05-04,0.09, 3.35, -2.75, 2.01, 1.55, 7.34, suppf,
2021-05-05,-0.73, 0.93, -1.00, 2.02, 1.55, 7.37, suppf,
2021-05-06,1.16, 1.56, -5.85, 2.05, 1.60, 7.66, suppf,
2021-05-07,0.63, -0.92, 6.22, 2.05, 1.58, 7.53, suppf,
2021-05-08,-0.16, -0.51, -6.12, 2.01, 1.54, 7.34, suppf,
2021-05-09,-1.01, 0.75, -4.95, 2.02, 1.53, 7.33, suppf,
2021-05-10,-1.07, 0.09, -0.21, 2.02, 1.54, 7.34, suppf,
2021-05-11,0.61, 1.69, -7.28, 2.01, 1.53, 7.32, suppf,
2021-05-12,-1.07, 1.00, -3.87, 2.02, 1.55, 7.39, suppf,
2021-05-13,0.10, 1.24, -10.10, 2.03, 1.54, 7.37, suppf,
2021-05-14,0.10, 1.32, -8.83, 2.03, 1.55, 7.39, suppf,
2021-05-15,-0.93, 2.37, -3.90, 2.02, 1.53, 7.31, suppf,
2021-05-16,-0.62, 1.57, -0.64, 2.01, 1.53, 7.32, suppf,
2021-05-17,-0.38, 3.05, -12.85, 2.03, 1.55, 7.44, suppf,
2021-05-18,1.87, 4.13, -0.56, 2.04, 1.55, 7.44, suppf,
2021-05-19,0.83, 2.12, -0.10, 2.10, 1.59, 7.66, suppf,
2021-05-20,-0.91, 0.55, -3.35, 2.15, 1.62, 7.74, suppf,
2021-05-21,0.39, 0.69, -1.17, 2.08, 1.57, 7.48, suppf,
2021-05-22,-0.76, 0.27, -2.60, 2.05, 1.56, 7.44, suppf,
2021-05-23,0.51, 0.02, -4.65, 2.04, 1.54, 7.40, suppf,
2021-05-24,0.18, 1.55, 0.12, 2.05, 1.55, 7.46, suppf,
2021-05-25,1.22, 1.87, -2.32, 2.04, 1.54, 7.41, suppf,
2021-05-26,-0.88, 0.06, -4.51, 2.04, 1.55, 7.43, suppf,
2021-05-27,2.68, 1.36, 7.68, 2.09, 1.62, 7.87, suppf,
2021-05-28,-0.39, 3.04, 3.70, 2.09, 1.55, 7.56, suppf,
2021-05-29,-0.44, 0.28, 0.27, 2.05, 1.56, 7.44, suppf,
2021-05-30,0.04, 0.54, 5.38, 2.05, 1.57, 7.50, suppf,
2021-05-31,0.73, 2.08, -0.70, 2.05, 1.56, 7.48, suppf,
2021-06-01,0.29, 1.78, -3.45, 2.04, 1.55, 7.39, suppf,
2021-06-02,-0.10, 2.02, -5.10, 2.07, 1.57, 7.56, suppf,
2021-06-03,1.51, 3.11, 9.08, 2.07, 1.58, 7.56, suppf,
2021-06-04,1.82, 2.22, -6.85, 2.06, 1.58, 7.55, suppf,
2021-06-05,0.78, 2.77, 9.55, 2.08, 1.58, 7.63, suppf,
2021-06-06,0.47, 0.71, 16.52, 2.06, 1.57, 7.50, suppf,
2021-06-07,1.26, 3.05, 11.84, 2.07, 1.56, 7.49, suppf,
2021-06-08,1.12, 0.76, -4.79, 2.07, 1.57, 7.48, suppf,
2021-06-09,-0.82, 0.86, -4.49, 2.07, 1.58, 7.44, suppf,
2021-06-10,1.42, 1.94, -1.52, 2.12, 1.61, 7.57, suppf,
2021-06-11,2.33, 0.49, -3.42, 2.15, 1.64, 7.75, suppf,
2021-06-12,2.05, 1.25, 0.44, 2.08, 1.61, 7.77, suppf,
2021-06-13,0.15, 1.02, -6.75, 2.09, 1.59, 7.64, suppf,
2021-06-14,-1.47, 1.56, 8.32, 2.18, 1.61, 7.94, suppf,
2021-06-15,-0.33, 1.76, 6.34, 2.09, 1.60, 7.60, suppf,
2021-06-16,0.22, 2.34, -8.68, 2.10, 1.59, 7.64, suppf,
2021-06-17,-0.11, 0.15, 3.06, 2.05, 1.55, 7.41, suppf,
2021-06-18,1.46, 0.42, -0.58, 2.04, 1.54, 7.36, suppf,
2021-06-19,0.86, 0.97, -4.87, 2.07, 1.57, 7.46, suppf,
2021-06-20,1.61, 1.68, 1.59, 2.09, 1.56, 7.45, suppf,
2021-06-21,0.04, 1.68, 5.89, 2.09, 1.59, 7.56, suppf,
2021-06-22,-2.08, 0.26, 15.95, 2.11, 1.60, 7.63, suppf,
2021-06-23,2.71, 1.67, 1.23, 2.11, 1.60, 7.64, suppf,
2021-06-24,0.00, 1.63, 6.37, 2.75, 2.14, 9.05, suppf,
2021-06-25,1.25, 2.90, 0.41, 2.10, 1.58, 7.46, suppf,
2021-06-26,1.93, 2.50, 5.83, 2.10, 1.59, 7.51, suppf,
2021-06-27,-0.05, 1.54, 3.63, 2.09, 1.60, 7.55, suppf,
2021-06-28,-0.42, 2.74, 13.31, 2.09, 1.59, 7.53, suppf,
2021-06-29,2.02, 0.64, 7.59, 2.11, 1.61, 7.59, suppf,
2021-06-30,0.14, 0.83, 11.56, 2.10, 1.57, 7.47, suppf,
2021-07-01,1.01, 3.44, 7.45, 2.15, 1.63, 7.77, suppf,
2021-07-02,0.85, 1.99, 7.59, 2.12, 1.62, 7.65, suppf,
2021-07-03,-0.42, 3.15, 8.27, 2.11, 1.60, 7.63, suppf,
2021-07-04,-0.56, 0.03, 17.10, 2.11, 1.58, 7.57, suppf,
2021-07-05,0.77, 2.57, 13.10, 2.11, 1.59, 7.60, suppf,
2021-07-06,-0.50, 1.41, 7.68, 2.12, 1.60, 7.59, suppf,
2021-07-07,1.59, 3.05, 4.40, 2.45, 1.86, 8.91, suppf,
2021-07-08,4.15, 3.97, -0.33, 2.09, 1.58, 7.55, suppf,
2021-07-09,0.79, 2.02, 8.56, 2.17, 1.62, 7.83, suppf,
2021-07-10,-1.35, 2.13, 3.69, 2.10, 1.57, 7.53, suppf,
2021-07-11,0.06, 1.80, 10.26, 2.09, 1.57, 7.48, suppf,
2021-07-12,-0.89, 2.10, 13.53, 2.10, 1.59, 7.56, suppf,
2021-07-13,0.24, 1.96, 6.16, 2.12, 1.62, 7.72, suppf,
2021-07-14,0.89, 1.57, 11.08, 2.11, 1.60, 7.68, suppf,
2021-07-15,0.65, 2.99, 9.78, 2.16, 1.63, 7.82, suppf,
2021-07-16,0.46, 5.42, 8.59, 2.27, 1.72, 8.28, suppf,
2021-07-17,2.74, 0.73, 4.19, 2.16, 1.61, 7.77, suppf,
2021-07-18,2.59, 3.27, -4.93, 2.15, 1.59, 7.72, suppf,
2021-07-19,2.53, 2.41, -0.05, 2.11, 1.61, 7.67, suppf,
2021-07-20,1.53, 2.67, 2.31, 2.13, 1.63, 7.85, suppf,
2021-07-21,2.44, 3.29, -1.77, 2.08, 1.58, 7.53, suppf,
2021-07-22,-0.61, 1.18, 2.07, 2.13, 1.62, 7.74, suppf,
2021-07-23,0.40, -0.51, 10.48, 2.14, 1.63, 7.79, suppf,
2021-07-24,0.66, 2.86, 2.90, 2.08, 1.58, 7.50, suppf,
2021-07-25,1.07, 1.67, 8.87, 2.09, 1.59, 7.56, suppf,
2021-07-26,1.69, 3.08, 11.00, 2.08, 1.58, 7.50, suppf,
2021-07-27,-1.23, 0.65, 10.82, 2.09, 1.59, 7.60, suppf,
2021-07-28,3.40, 1.73, -3.95, 2.10, 1.58, 7.63, suppf,
2021-07-29,5.44, 3.13, -3.47, 2.10, 1.58, 7.61, suppf,
2021-07-30,2.99, 2.12, -4.81, 2.16, 1.63, 7.78, suppf,
2021-07-31,1.16, 1.70, -0.52, 2.09, 1.58, 7.54, suppf,
2021-08-01,0.84, 3.01, -6.44, 2.13, 1.64, 7.84, suppf,
2021-08-02,0.97, 2.64, -2.04, 2.10, 1.59, 7.61, suppf,
2021-08-03,0.37, 2.66, -3.20, 2.09, 1.58, 7.56, suppf,
2021-08-04,1.23, 1.44, 7.01, 2.11, 1.59, 7.59, suppf,
2021-08-05,1.40, 2.86, 2.91, 2.10, 1.61, 7.66, suppf,
2021-08-06,0.37, 2.82, 0.40, 2.21, 1.63, 7.99, suppf,
2021-08-07,-1.07, 3.89, -2.78, 2.10, 1.60, 7.65, suppf,
2021-08-08,-1.31, 7.53, 8.64, 2.21, 1.69, 8.30, suppf,
2021-08-09,0.20, 2.11, 7.25, 2.09, 1.59, 7.58, suppf,
2021-08-10,-0.34, 1.60, 10.37, 2.09, 1.59, 7.55, suppf,
2021-08-11,0.69, 1.50, 4.49, 2.10, 1.59, 7.56, suppf,
2021-08-12,0.90, 2.67, 5.42, 2.10, 1.59, 7.59, suppf,
2021-08-13,1.33, 2.35, 2.27, 2.08, 1.57, 7.48, suppf,
2021-08-14,0.88, 4.23, -3.84, 2.10, 1.60, 7.64, suppf,
2021-08-15,0.93, 1.34, 7.13, 2.10, 1.59, 7.59, suppf,
2021-08-16,0.87, 3.96, 1.42, 2.11, 1.62, 7.72, suppf,
2021-08-17,-1.14, 5.11, 10.67, 2.15, 1.63, 7.84, suppf,
2021-08-18,1.10, 0.48, 7.99, 2.08, 1.57, 7.51, suppf,
2021-08-19,-0.70, 1.53, 5.49, 2.09, 1.60, 7.59, suppf,
2021-08-20,-0.73, 2.48, 4.57, 2.10, 1.60, 7.70, suppf,
2021-08-21,-0.54, 1.52, 3.90, 2.13, 1.66, 7.89, suppf,
2021-08-22,0.37, 0.86, 5.83, 2.11, 1.63, 7.74, suppf,
2021-08-23,1.05, -0.83, 0.47, 2.12, 1.62, 7.74, suppf,
2021-08-24,0.32, 0.35, 4.33, 2.08, 1.58, 7.50, suppf,
2021-08-25,0.83, 0.88, 0.03, 2.08, 1.59, 7.59, suppf,
2021-08-26,0.46, 0.99, 4.87, 2.11, 1.64, 7.84, suppf,
2021-08-27,-0.80, 2.55, 1.07, 2.10, 1.60, 7.62, suppf,
2021-08-28,2.04, 1.07, 1.71, 2.10, 1.58, 7.56, suppf,
2021-08-29,1.34, 1.17, 6.60, 2.09, 1.59, 7.60, suppf,
2021-08-30,0.18, 1.25, 12.27, 2.10, 1.62, 7.68, suppf,
2021-08-31,0.90, 0.48, 12.92, 2.09, 1.60, 7.59, suppf,
2021-09-01,-1.12, -1.13, 11.59, 2.08, 1.58, 7.49, suppf,
2021-09-02,1.00, 1.18, 4.23, 2.11, 1.62, 7.69, suppf,
2021-09-03,-0.19, 2.09, 8.23, 2.17, 1.65, 7.87, suppf,
2021-09-04,0.93, 1.32, 13.64, 2.22, 1.64, 7.91, suppf,
2021-09-05,0.13, -1.61, 7.12, 2.18, 1.63, 7.81, suppf,
2021-09-06,-0.02, 2.33, 4.00, 2.11, 1.58, 7.58, suppf,
2021-09-07,0.45, 0.47, 9.83, 2.09, 1.57, 7.55, suppf,
2021-09-08,2.29, 0.68, 11.83, 2.13, 1.63, 7.82, suppf,
2021-09-09,2.35, 3.47, 10.61, 2.11, 1.61, 7.68, suppf,
2021-09-10,-0.91, 1.56, 6.85, 2.11, 1.61, 7.66, suppf,
2021-09-11,0.54, -0.28, -3.36, 2.12, 1.62, 7.86, suppf,
2021-09-12,-0.36, -0.13, 10.98, 2.09, 1.59, 7.57, suppf,
2021-09-13,-0.93, 0.56, 10.21, 2.09, 1.58, 7.53, suppf,
2021-09-14,1.44, 0.49, 3.80, 2.07, 1.56, 7.47, suppf,
2021-09-15,1.42, 4.95, 13.59, 2.10, 1.61, 7.68, suppf,
2021-09-16,0.54, -0.04, 11.66, 2.07, 1.57, 7.48, suppf,
2021-09-17,0.53, -0.64, 21.20, 2.09, 1.59, 7.57, suppf,
2021-09-18,-0.55, 2.79, 22.44, 2.17, 1.65, 8.04, suppf,
2021-09-19,-0.12, 1.09, 17.02, 2.09, 1.58, 7.54, suppf,
2021-09-20,2.48, 1.85, 5.22, 2.09, 1.60, 7.61, suppf,
2021-09-21,0.04, 0.70, 3.62, 2.09, 1.57, 7.51, suppf,
2021-09-22,0.03, 0.83, 11.98, 2.08, 1.57, 7.50, suppf,
2021-09-23,0.69, 0.23, -2.67, 2.09, 1.58, 7.59, suppf,
2021-09-24,0.70, 0.70, 9.05, 2.19, 1.67, 7.99, suppf,
2021-09-25,0.32, 0.88, 8.80, 2.07, 1.56, 7.47, suppf,
2021-09-26,1.92, 2.67, 12.48, 2.14, 1.59, 7.66, suppf,
2021-09-27,0.40, 6.21, 24.21, 2.14, 1.64, 7.88, suppf,
2021-09-28,0.30, 1.07, 14.52, 2.09, 1.57, 7.54, suppf,
2021-09-29,-1.14, -0.77, 9.81, 2.10, 1.58, 7.59, suppf,
2021-09-30,-0.50, 1.24, 14.98, 2.08, 1.56, 7.48, suppf,
2021-10-01,0.27, 2.38, 4.76, 2.10, 1.59, 7.66, suppf,
2021-10-02,0.64, 1.37, 7.74, 2.09, 1.58, 7.61, suppf,
2021-10-03,-1.37, 0.10, 15.34, 2.11, 1.61, 7.74, suppf,
2021-10-04,0.10, 1.48, 7.96, 2.13, 1.60, 7.74, suppf,
2021-10-05,-0.68, 3.17, 28.51, 2.13, 1.59, 7.72, suppf,
2021-10-06,0.25, -1.26, 4.91, 2.10, 1.58, 7.59, suppf,
2021-10-07,0.46, 0.51, 4.25, 2.08, 1.59, 7.58, suppf,
2021-10-08,0.10, 1.00, 11.31, 2.08, 1.58, 7.55, suppf,
2021-10-09,-0.43, 0.40, 12.50, 2.09, 1.59, 7.63, suppf,
2021-10-10,0.64, 1.89, 23.75, 2.14, 1.61, 7.79, suppf,
2021-10-11,-0.09, -0.45, 11.30, 2.09, 1.56, 7.49, suppf,
2021-10-12,0.25, -0.32, 6.75, 2.08, 1.57, 7.52, suppf,
2021-10-13,1.84, 2.04, 8.74, 2.10, 1.59, 7.64, suppf,
2021-10-14,-0.45, 1.65, 10.17, 2.08, 1.57, 7.53, suppf,
2021-10-15,0.80, 1.68, 2.91, 2.10, 1.58, 7.66, suppf,
2021-10-16,0.49, 2.21, 11.03, 2.07, 1.56, 7.48, suppf,
2021-10-17,-1.11, 1.99, 15.58, 2.10, 1.57, 7.61, suppf,
2021-10-18,1.02, 0.16, 3.22, 2.06, 1.56, 7.40, suppf,
2021-10-19,0.68, 0.24, 4.30, 2.07, 1.58, 7.51, suppf,
2021-10-20,-1.07, -0.20, 15.38, 2.12, 1.64, 7.72, suppf,
2021-10-21,-0.54, 1.20, 15.43, 2.13, 1.63, 7.78, suppf,
2021-10-22,0.69, -0.18, 14.43, 2.09, 1.56, 7.49, suppf,
2021-10-23,-1.68, -0.91, 17.35, 2.07, 1.57, 7.46, suppf,
2021-10-24,-1.32, -0.29, 13.63, 2.10, 1.63, 7.71, suppf,
2021-10-25,1.81, -0.85, 7.84, 2.10, 1.58, 7.62, suppf,
2021-10-26,0.27, 0.73, 32.03, 2.10, 1.58, 7.60, suppf,
2021-10-27,-0.24, 2.60, 18.57, 2.18, 1.61, 7.90, suppf,
2021-10-28,5.71, 1.51, 13.15, 2.16, 1.61, 7.83, suppf,
2021-10-29,5.64, -1.72, 13.93, 2.16, 1.60, 7.74, suppf,
2021-10-30,1.07, 0.49, 1.43, 2.12, 1.58, 7.61, suppf,
2021-10-31,0.42, 2.94, 9.32, 2.13, 1.56, 7.55, suppf,
2021-11-01,-0.16, -0.95, 10.36, 2.14, 1.58, 7.65, suppf,
2021-11-02,0.00, 0.89, 11.43, 2.14, 1.60, 7.79, suppf,
2021-11-03,0.95, 2.70, 5.55, 2.15, 1.59, 7.75, suppf,
2021-11-04,-0.28, 5.16, 30.05, 2.18, 1.62, 7.85, suppf,
2021-11-05,3.25, 3.96, 8.28, 2.15, 1.59, 7.72, suppf,
2021-11-06,1.48, 4.88, 13.25, 2.16, 1.58, 7.67, suppf,
2021-11-07,3.77, 3.59, 12.79, 2.12, 1.58, 7.59, suppf,
2021-11-08,-0.54, -1.09, 6.92, 2.09, 1.58, 7.57, suppf,
2021-11-09,2.55, -0.58, 22.64, 2.11, 1.61, 7.70, suppf,
2021-11-10,-0.22, 1.68, 2.85, 2.08, 1.59, 7.59, suppf,
2021-11-11,0.36, 1.39, 3.31, 2.12, 1.61, 7.78, suppf,
2021-11-12,3.09, 4.86, 7.15, 2.16, 1.64, 7.84, suppf,
2021-11-13,0.96, 2.12, 5.72, 2.17, 1.64, 7.84, suppf,
2021-11-14,1.40, 1.66, 8.44, 2.23, 1.68, 8.04, suppf,
2021-11-15,0.95, 0.95, 5.06, 2.15, 1.66, 7.98, suppf,
2021-11-16,0.10, 3.34, 3.64, 2.10, 1.60, 7.62, suppf,
2021-11-17,-0.95, 0.67, -8.94, 2.05, 1.55, 7.41, suppf,
2021-11-18,-0.70, 0.20, 1.64, 2.08, 1.58, 7.56, suppf,
2021-11-19,0.98, 2.99, 10.11, 2.10, 1.59, 7.61, suppf,
2021-11-20,-1.54, 0.35, -6.17, 2.07, 1.56, 7.49, suppf,
2021-11-21,-1.68, 1.14, -4.43, 2.06, 1.56, 7.46, suppf,
2021-11-22,0.07, 2.64, -5.34, 2.08, 1.57, 7.54, suppf,
2021-11-23,-0.56, 1.39, 3.34, 2.09, 1.58, 7.58, suppf,
2021-11-24,-1.11, 0.96, -4.68, 2.08, 1.57, 7.53, suppf,
2021-11-25,1.19, 0.79, -8.37, 2.08, 1.56, 7.48, suppf,
2021-11-26,1.71, 4.89, 8.53, 2.10, 1.59, 7.62, suppf,
2021-11-27,-0.97, 1.91, -5.70, 2.07, 1.56, 7.43, suppf,
2021-11-28,0.26, 8.21, 10.94, 2.09, 1.60, 7.63, suppf,
2021-11-29,-0.82, 3.82, 3.78, 2.11, 1.59, 7.68, suppf,
2021-11-30,-0.93, 11.60, 0.58, 2.10, 1.58, 7.58, suppf,
2021-12-01,0.03, 7.53, 6.35, 2.08, 1.57, 7.54, suppf,
2021-12-02,-0.30, 4.15, 9.60, 2.16, 1.58, 7.77, suppf,
2021-12-03,0.18, 0.73, -5.14, 2.17, 1.61, 7.81, suppf,
2021-12-04,1.55, -1.95, -1.65, 2.14, 1.59, 7.70, suppf,
2021-12-05,0.38, 1.81, 1.34, 2.12, 1.56, 7.59, suppf,
2021-12-06,-0.96, 2.08, -6.87, 2.14, 1.58, 7.73, suppf,
2021-12-07,-1.20, 0.09, 11.00, 2.18, 1.64, 8.06, suppf,
2021-12-08,0.24, 3.90, 18.07, 2.19, 1.63, 7.98, suppf,
2021-12-09,1.47, 1.87, 5.18, 2.20, 1.56, 7.56, suppf,
2021-12-10,-0.04, 0.55, 3.98, 2.30, 1.64, 8.00, suppf,
2021-12-11,-1.93, 0.47, 13.72, 2.15, 1.62, 7.84, suppf,
2021-12-12,-1.66, -1.26, 5.30, 2.13, 1.56, 7.62, suppf,
2021-12-13,-2.95, 0.45, -2.37, 2.13, 1.60, 7.72, suppf,
2021-12-14,-0.68, -0.17, 3.57, 2.12, 1.57, 7.64, suppf,
2021-12-15,-1.27, -0.16, 8.86, 2.14, 1.59, 7.69, suppf,
2021-12-16,0.08, 0.55, 3.46, 2.13, 1.59, 7.69, suppf,
2021-12-17,-1.96, 0.91, -0.99, 2.15, 1.59, 7.73, suppf,
2021-12-18,1.31, 1.37, -2.87, 2.16, 1.62, 7.85, suppf,
2021-12-19,-0.20, -2.16, 0.93, 2.14, 1.62, 7.77, suppf,
2021-12-20,-0.05, -1.24, 8.41, 2.16, 1.63, 7.87, suppf,
2021-12-21,-2.05, 0.89, 3.91, 2.14, 1.60, 7.74, suppf,
2021-12-22,3.39, 3.11, 6.27, 2.14, 1.61, 7.82, suppf,
2021-12-23,1.43, -0.19, 16.57, 2.17, 1.63, 7.88, suppf,
2021-12-24,1.22, 3.93, 25.36, 2.16, 1.63, 7.88, suppf,
2021-12-25,0.48, 2.65, 19.59, 2.16, 1.64, 7.95, suppf,
2021-12-26,1.04, 1.57, 22.49, 2.14, 1.61, 7.75, suppf,
2021-12-27,-0.37, 0.91, 10.83, 2.14, 1.59, 7.72, suppf,
2021-12-28,0.78, 0.21, 0.18, 2.13, 1.57, 7.69, suppf,
2021-12-29,-1.16, -0.48, 10.48, 2.14, 1.60, 7.77, suppf,
2021-12-30,1.03, 1.44, 14.66, 2.17, 1.62, 7.93, suppf,
2022-01-03,-3.65, 0.07, -9.61, 2.15, 1.59, 7.77, suppf,
2022-01-21,-1.92, 3.74, -3.57, 2.15, 1.60, 7.77, suppf,
2022-01-22,-0.55, 3.13, -5.49, 2.14, 1.59, 7.71, suppf,
2022-01-23,-0.15, 4.67, -6.67, 2.11, 1.56, 7.59, suppf,
2022-01-24,-1.39, 3.41, -0.10, 2.12, 1.56, 7.63, suppf,
2022-01-25,0.72, 2.85, -8.82, 2.10, 1.55, 7.52, suppf,
2022-01-26,-0.37, 3.24, -1.88, 2.14, 1.59, 7.76, suppf,
2022-01-27,-1.27, 1.45, -8.41, 2.06, 1.54, 7.47, suppf,
2022-01-28,-1.39, 1.49, -9.05, 2.06, 1.55, 7.48, suppf,
2022-01-29,-0.47, 1.35, -14.91, 2.07, 1.55, 7.48, suppf,
2022-01-30,-1.78, 1.83, 0.21, 2.06, 1.55, 7.48, suppf,
2022-01-31,-2.53, 3.81, 5.93, 2.07, 1.56, 7.51, suppf,
2022-02-01,-2.08, 2.96, -2.40, 2.07, 1.57, 7.58, suppf,
2022-02-02,-2.03, 3.20, -9.27, 2.08, 1.56, 7.56, suppf,
2022-02-03,-0.03, 2.76, -17.67, 2.08, 1.56, 7.59, suppf,
2022-02-04,-1.01, 2.72, -16.47, 2.07, 1.54, 7.50, suppf,
2022-02-05,-1.03, 2.78, -10.80, 2.09, 1.57, 7.66, suppf,
2022-02-06,-1.27, 2.50, -9.38, 2.09, 1.58, 7.72, suppf,
2022-02-07,-1.21, 3.47, -3.16, 2.09, 1.58, 7.69, suppf,
2022-02-08,-0.49, 1.48, -10.84, 2.09, 1.58, 7.65, suppf,
2022-02-09,-0.13, 4.36, -10.78, 2.09, 1.58, 7.62, suppf,
2022-02-10,-0.87, 1.62, -5.36, 2.07, 1.54, 7.47, suppf,
2022-02-11,-0.54, 1.50, -9.79, 2.07, 1.56, 7.55, suppf,
2022-02-12,-1.76, 1.29, 4.67, 2.08, 1.58, 7.65, suppf,
2022-02-13,0.26, 2.29, -3.73, 2.06, 1.55, 7.48, suppf,
2022-02-14,2.54, 4.54, -0.02, 2.07, 1.56, 7.55, suppf,
2022-02-15,-0.49, 1.74, -5.19, 2.13, 1.57, 7.63, suppf,
2022-02-16,-1.40, 2.71, -3.09, 2.07, 1.56, 7.59, suppf,
2022-02-17,0.85, 2.59, -9.70, 2.07, 1.55, 7.55, suppf,
2022-02-18,-0.77, 2.28, -2.91, 2.08, 1.57, 7.61, suppf,
2022-02-19,0.02, 3.60, -6.40, 2.06, 1.55, 7.49, suppf,
2022-02-20,0.46, 2.35, 6.37, 2.06, 1.56, 7.55, suppf,
2022-02-21,-0.26, 1.46, -6.06, 2.08, 1.57, 7.63, suppf,
2022-02-22,-1.03, -0.65, -7.40, 2.07, 1.57, 7.60, suppf,
2022-02-23,0.48, -0.63, -7.83, 2.07, 1.55, 7.52, suppf,
2022-02-24,-0.95, 0.41, -4.73, 2.17, 1.59, 7.78, suppf,
2022-02-25,-0.30, 0.86, -7.73, 2.17, 1.58, 7.73, suppf,
2022-02-26,0.48, -0.75, -4.40, 2.04, 1.51, 7.33, suppf,
2022-02-27,3.14, 3.34, 21.00, 2.08, 1.55, 7.56, suppf,
2022-02-28,4.67, -2.83, 6.82, 2.12, 1.60, 7.76, suppf,
2022-03-01,-1.85, -0.75, -1.67, 2.09, 1.59, 7.73, suppf,
2022-03-02,-0.79, 0.73, 3.93, 2.08, 1.58, 7.67, suppf,
2022-03-03,0.84, 0.81, 0.43, 2.07, 1.56, 7.61, suppf,
2022-03-04,-0.28, 1.39, -3.90, 2.04, 1.52, 7.38, suppf,
2022-03-05,0.05, 0.49, -7.88, 2.05, 1.52, 7.36, suppf,
2022-03-06,-0.92, 1.59, -7.47, 2.07, 1.56, 7.59, suppf,
2022-03-07,-0.94, 1.90, -6.73, 2.06, 1.55, 7.51, suppf,
2022-03-08,-2.30, 3.99, -7.84, 2.08, 1.56, 7.56, suppf,
2022-03-09,-1.84, 0.93, -2.15, 2.06, 1.53, 7.44, suppf,
2022-03-10,-1.00, -0.79, -2.31, 2.13, 1.52, 7.39, suppf,
2022-03-11,-1.62, 0.63, -3.53, 2.16, 1.56, 7.59, suppf,
2022-03-12,2.69, 6.35, 3.58, 2.07, 1.55, 7.58, suppf,
2022-03-13,-0.22, 1.88, 4.43, 2.10, 1.57, 7.68, suppf,
2022-03-14,0.46, 1.87, -5.69, 2.05, 1.53, 7.41, suppf,
2022-03-15,2.54, 2.04, 7.54, 2.08, 1.55, 7.55, suppf,
2022-03-16,-1.38, 3.41, 2.48, 2.08, 1.56, 7.58, suppf,
2022-03-17,-0.86, 0.76, -5.62, 2.08, 1.58, 7.67, suppf,